Location: Azul
(36.7830°S, 59.8500°W)
Time: 09:17:14
(UTC-03:00)

NOAA 15 - Pass Details

Date: 27 October 2021
Orbit: 797 x 813 km, 98.7° (Epoch: 07 December)

Event Time Altitude Azimuth Distance (km) Brightness Sun altitude
Rises 20:06:59 0° 158° (SSE) 3,341 7.8 -8.2°
Reaches altitude 10° 20:09:30 10° 150° (SSE) 2,405 7.0 -8.7°
Maximum altitude 20:14:27 39° 82° (E) 1,207 5.1 -9.6°
Drops below altitude 10° 20:19:21 10° 13° (NNE) 2,385 6.7 -10.5°
Sets 20:21:49 0° 5° (N) 3,310 7.5 -10.9°
